User: anonymous   Login
Location: Sevilla
(37.3933°N, 5.9839°W)
Time: 14:11:34
(UTC+02:00)
Language:

Explorer 7 - Orbit

View from above orbital plane
View from above orbital plane
View from above satellite
View from above satellite

Ground track
Ground track

The orbit data is extracted from the following two-line orbital elements,

1 00022U 59009A   24176.87127984  .00009231  00000-0  53699-3 0  9993
2 00022  50.2786  16.2456 0112654 139.2495 221.6952 15.07476751690566
Epoch (UTC): 24 June 2024 20:54:38
Eccentricity: 0.0112654
inclination: 50.2786°
perigee height: 466 km
apogee height: 622 km
right ascension of ascending node: 16.2456°
argument of perigee: 139.2495°
revolutions per day: 15.07476751
mean anomaly at epoch: 221.6952°
orbit number at epoch: 69056

The dashed part of the orbit path shows where the satellite is in the earth's shadow,  

DLR